Location: Nashville
(36.1660°N, 86.7840°W)
Time: 06:51:24
(UTC-05:00)

EO-88 - Pass Details

Date: 18 May 2022
Orbit: 457 x 464 km, 97.3° (Epoch: 27 June)

Event Time Altitude Azimuth Distance (km) Brightness Sun altitude
Exits shadow 22:51:52 23° 305° (NW) 1,021 ? -28.1°
Drops below altitude 10° 22:53:38 10° 327° (NNW) 1,616 ? -28.3°
Sets 22:55:50 0° 338° (NNW) 2,498 ? -28.5°
